Flag for Congo Dem.Rep. Weather past 2 weeks in Bukavu, Congo Dem.Rep.

Now
79 °F

Scattered clouds.


Feels Like: 80 °F
Forecast: 54 / 74 °F
Wind: 7 mph from South

Location: Kigali Airport

Current Time: May 23, 2015 at 3:00:12 PM

Latest Report: May 23, 2015 at 2:30 PM


Visibility: N/A

Pressure: 30.12 "Hg

Humidity: 58%

Dew point: 63 °F

Location of BukavuLocation

Historic Weather in Bukavu — Graph

°F

Bukavu temperature yesterday

Maximum temperature yesterday: 79 °F (at 1:30 PM)
Minimum temperature yesterday: 64 °F (at 3:30 AM)
Average temperature yesterday: 71 °F

Past Weeks' High & Low Weather Summary

 TemperatureHumidityPressure
High82 °F (May 11, 2:00 PM)100% (May 8, 2:00 PM)30.27 "Hg (May 8, 2:00 PM)
Low61 °F (May 15, 4:30 AM)51% (May 17, 3:30 PM)30.04 "Hg (May 17, 4:30 PM)
Average71 °F85%30.17 "Hg
* Reported May 8 2:00 PM — May 23 2:00 PM, Bukavu, Weather by CustomWeather, © 2015

Note: Actual official high and low records may vary slightly from our data, if they occured in-between our weather recording intervals... More about our weather records

Advertising

Bukavu weather history for previous 24 hours

 ConditionsComfort  
Time TempWeatherWind HumidityBarometerVisibility
2:00 PM
Sat, May 23
79 °FScattered clouds.5 mph58%30.12 "HgN/A
1:30 PM79 °FScattered clouds.5 mph61%30.15 "HgN/A
1:00 PM77 °FScattered clouds.6 mph57%30.18 "HgN/A
12:30 PM77 °FScattered clouds.5 mph57%30.18 "HgN/A
12:00 PM77 °FScattered clouds.6 mph57%30.21 "HgN/A
11:30 AM75 °FScattered clouds.8 mph61%30.21 "HgN/A
11:00 AM75 °FScattered clouds.7 mph61%30.24 "HgN/A
10:30 AM75 °FScattered clouds.9 mph65%30.24 "HgN/A
10:00 AM73 °FScattered clouds.6 mph65%30.24 "HgN/A
9:30 AM73 °FScattered clouds.5 mph65%30.24 "HgN/A
9:00 AM72 °FBroken clouds.5 mph78%30.24 "HgN/A
8:30 AM70 °FBroken clouds.No wind88%30.24 "Hg5 mi
8:00 AM68 °FBroken clouds.No wind94%30.24 "Hg5 mi
7:30 AM68 °FScattered clouds.No wind94%30.24 "HgN/A
7:00 AM66 °FScattered clouds.No wind100%30.21 "HgN/A
6:30 AM64 °FScattered clouds.No wind100%30.21 "HgN/A
6:00 AM66 °FScattered clouds.No wind94%30.18 "HgN/A
5:30 AM66 °FPassing clouds.No wind94%30.18 "HgN/A
5:00 AM66 °FPassing clouds.No wind100%30.18 "HgN/A
4:00 AM66 °FPassing clouds.No wind94%30.18 "HgN/A
3:30 AM68 °FPassing clouds.No wind88%30.18 "HgN/A
3:00 AM68 °FPassing clouds.No wind94%30.18 "HgN/A
2:30 AM68 °FPassing clouds.No wind88%30.18 "HgN/A
2:00 AM68 °FPassing clouds.No wind94%30.18 "HgN/A
1:30 AM68 °FPassing clouds.No wind88%30.18 "HgN/A
1:00 AM68 °FPassing clouds.No wind88%30.18 "HgN/A
12:03 AM70 °FPassing clouds.No wind78%30.21 "HgN/A
12:00 AM70 °FPassing clouds.3 mph78%30.21 "HgN/A
11:30 PM
Fri, May 22
70 °FPassing clouds.3 mph78%30.21 "HgN/A
11:00 PM70 °FPassing clouds.No wind83%30.21 "HgN/A
10:30 PM70 °FPassing clouds.3 mph83%30.21 "HgN/A
10:00 PM72 °FPassing clouds.5 mph78%30.21 "HgN/A
9:30 PM72 °FPassing clouds.No wind78%30.21 "HgN/A
9:00 PM72 °FPassing clouds.3 mph78%30.21 "HgN/A
8:30 PM70 °FPassing clouds.No wind83%30.18 "HgN/A
8:00 PM72 °FPassing clouds.No wind78%30.18 "HgN/A
7:30 PM72 °FPassing clouds.No wind78%30.15 "HgN/A
7:00 PM72 °FPassing clouds.No wind73%30.15 "HgN/A
6:30 PM73 °FPassing clouds.5 mph74%30.15 "HgN/A
6:00 PM73 °FPassing clouds.5 mph74%30.15 "HgN/A
5:30 PM75 °FScattered clouds.7 mph65%30.15 "HgN/A
5:00 PM77 °FScattered clouds.7 mph61%30.15 "HgN/A
4:30 PM77 °FScattered clouds.7 mph61%30.12 "HgN/A
4:00 PM77 °FPartly sunny.7 mph61%30.12 "HgN/A
3:30 PM79 °FPartly sunny.7 mph58%30.12 "HgN/A
3:00 PM79 °FPartly sunny.9 mph58%30.15 "HgN/A
Weather by CustomWeather, © 2015

See weather overviewHow to use our weather pages